TimeEDT,TemperatureF,Dew PointF,Humidity,Sea Level PressureIn,VisibilityMPH,Wind Direction,Wind SpeedMPH,Gust SpeedMPH,PrecipitationIn,Events,Conditions,WindDirDegrees,DateUTC
12:53 AM,-9999,-9999,N/A,30.07,10.0,Calm,Calm,-,N/A,,Clear,0,2012-11-01 04:53:00
1:53 AM,-9999,-9999,N/A,30.07,10.0,NNE,3.5,-,N/A,,Clear,20,2012-11-01 05:53:00
2:53 AM,-9999,-9999,N/A,30.06,10.0,NE,3.5,-,N/A,,Clear,40,2012-11-01 06:53:00
3:53 AM,-9999,-9999,N/A,30.05,10.0,ENE,3.5,-,N/A,,Clear,70,2012-11-01 07:53:00
4:53 AM,-9999,-9999,N/A,30.05,10.0,East,4.6,-,N/A,,Clear,80,2012-11-01 08:53:00
5:53 AM,-9999,-9999,N/A,30.05,10.0,Calm,Calm,-,N/A,,Clear,0,2012-11-01 09:53:00
6:00 AM,66.2,62.6,88,30.05,10.0,Calm,Calm,-,N/A,,Clear,0,2012-11-01 10:00:00
6:53 AM,66.2,62.1,86,30.06,9.0,Calm,Calm,-,N/A,,Clear,0,2012-11-01 10:53:00
7:53 AM,66.2,61.0,83,30.07,10.0,Calm,Calm,-,N/A,,Partly Cloudy,0,2012-11-01 11:53:00
8:53 AM,68.0,64.9,90,30.08,10.0,Calm,Calm,-,N/A,,Partly Cloudy,0,2012-11-01 12:53:00
9:53 AM,73.4,62.1,68,30.09,10.0,Calm,Calm,-,N/A,,Clear,0,2012-11-01 13:53:00
10:53 AM,77.0,62.1,60,30.10,10.0,Calm,Calm,-,N/A,,Clear,0,2012-11-01 14:53:00
11:53 AM,77.0,61.0,58,30.09,10.0,West,3.5,-,N/A,,Clear,280,2012-11-01 15:53:00
12:53 PM,77.0,59.0,54,30.07,10.0,Variable,3.5,-,N/A,,Clear,0,2012-11-01 16:53:00
1:53 PM,78.8,60.1,53,30.05,10.0,NW,5.8,-,N/A,,Clear,320,2012-11-01 17:53:00
2:53 PM,78.8,60.1,53,30.03,10.0,Variable,4.6,-,N/A,,Partly Cloudy,0,2012-11-01 18:53:00
3:53 PM,78.8,60.1,53,30.02,10.0,NW,4.6,-,N/A,,Partly Cloudy,320,2012-11-01 19:53:00
4:53 PM,78.8,61.0,54,30.02,10.0,NW,4.6,-,N/A,,Partly Cloudy,310,2012-11-01 20:53:00
5:53 PM,78.8,61.0,54,30.02,10.0,Calm,Calm,-,N/A,,Partly Cloudy,0,2012-11-01 21:53:00
6:53 PM,77.0,61.0,58,30.03,10.0,Calm,Calm,-,N/A,,Partly Cloudy,0,2012-11-01 22:53:00
7:53 PM,75.2,62.1,64,30.04,10.0,Calm,Calm,-,N/A,,Partly Cloudy,0,2012-11-01 23:53:00
8:53 PM,73.4,62.1,68,30.05,10.0,Calm,Calm,-,N/A,,Clear,0,2012-11-02 00:53:00
9:53 PM,73.4,62.1,68,30.06,10.0,Calm,Calm,-,N/A,,Clear,0,2012-11-02 01:53:00
10:53 PM,-9999,-9999,N/A,30.07,10.0,South,3.5,-,N/A,,Clear,190,2012-11-02 02:53:00
11:53 PM,-9999,-9999,N/A,30.08,10.0,Calm,Calm,-,N/A,,Clear,0,2012-11-02 03:53:00